Assumption Island Airport

Jump to: basic info | weather | runways | comments

Related pages: nearby airports | nearby navaids | notams | map

Basic information (top)

Codes: FSAS
Location: lon -9.742220, lat 46.506802, elev 10 ft / 3 m msl
Status: small_airport

Weather (top)

Current conditions for Prince Said Ibrahim International Airport 219nm (406km) WSW (rec'd 2015/04/25 15:00Z):

FMCH 251500Z 14004KT 090V150 9999 SCT020TCU 30/25 Q1012 NOSIG

Airport forecast for Prince Said Ibrahim International Airport 219nm (406km) WSW (rec'd 2015/04/25 18:00Z):

TAF FMCH 251700Z 2518/2624 16005KT 9999 FEW020 SCT030 
      BECMG 2604/2606 22012KT PROB30 
      TEMPO 2610/2615 SHRA TSRA FEW020CB BKN030 

Runways (top)

13/31: 3,963 x 75 ft (1,208 x 23 m) — paved — not lighted

Latest comments (top)

No comments yet for Assumption Island Airport

More... (top)

See also NOTAMs and nearby airports and navaids, or visit the Assumption Island Airport page at the main OurAirports website..